Location: Luz Observatory
(34.5000°N, 117.2833°W)
Time: 06:46:38
(UTC-07:00)

Daily predictions for brighter satellites

Satellite Brightness Start Highest point End
(mag) Time Altitude Azimuth Time Altitude Azimuth Time Altitude Azimuth
ATLAS 2A CENTAUR R/B 4.1 19:57:30 10° WSW 20:03:58 58° SSE 20:29:42 10° E
Helios 1B rocket 3.1 20:26:29 10° NNE 20:30:18 35° E 20:34:05 10° SSE
Cosmos 1378 3.1 20:28:03 10° S 20:31:47 77° E 20:35:34 10° N
Meteor 2-5 Rocket 3.8 20:27:58 10° S 20:33:49 79° E 20:39:34 10° N
BREEZE-M DEB (TANK) 4.2 20:36:18 10° WNW 20:37:42 16° NNW 20:39:08 10° NNE
Cosmos 1140 Rocket 3.8 20:34:24 10° S 20:39:17 45° ESE 20:44:12 10° NNE
Lacrosse 4 Rocket 1.7 20:38:35 10° SSW 20:42:44 75° WNW 20:47:03 10° NNE
Tiangong 1 1.6 20:40:17 10° WSW 20:43:03 53° NNW 20:45:47 10° NE
Cosmos 1980 4.0 20:38:00 10° N 20:43:35 53° ENE 20:49:07 10° SE
Cosmos 1470 3.8 20:41:48 10° NNW 20:45:37 49° W 20:49:24 10° SSW
ATLAS 5 CENTAUR R/B 2.4 20:42:06 10° S 20:46:08 32° ESE 20:50:25 10° NE
Cosmos-2242 3.2 20:41:53 10° N 20:46:09 75° W 20:50:24 10° S
Atlas Centaur 2 1.4 20:45:39 10° WSW 20:49:08 43° S 20:52:23 11° ESE
CZ-2D R/B 4.5 20:45:38 10° S 20:49:14 42° W 20:52:54 10° NNW
Cosmos 407 Rocket 4.3 20:45:12 10° SSW 20:50:12 56° WNW 20:55:15 10° N
USA 186 2.3 20:49:27 10° S 20:51:48 40° W 20:54:02 10° NNW
YAOGAN 6 3.5 20:48:46 10° SE 20:51:57 33° ENE 20:55:16 10° N
Cosmos 2237 Rocket 2.3 20:48:41 10° NNW 20:54:16 61° ENE 20:59:35 11° SSE
Cosmos 1023 Rocket 4.4 20:49:50 10° S 20:54:57 67° ESE 21:00:02 10° NNE
SL-8 R/B 3.9 20:57:25 10° NW 21:02:11 67° NE 21:06:06 15° ESE
Meteor 1-24 Rocket 3.8 20:57:03 10° S 21:03:01 86° E 21:08:52 10° N
Cosmos 1954 Rocket 4.1 20:57:57 10° SSW 21:03:09 82° WNW 21:08:22 10° NNE
Cosmos 2227 Rocket 2.9 20:59:47 10° SW 21:05:21 59° WNW 21:10:56 10° NNE
Cosmos 1674 4.0 21:04:38 16° SE 21:06:26 22° E 21:09:25 10° NE
Cosmos 1850 Rocket 4.3 21:02:11 10° S 21:07:05 46° ESE 21:12:01 10° NNE
Cosmos 2221 3.5 21:05:54 10° NNE 21:09:46 30° ENE 21:12:14 18° SE
H-2A R/B 3.8 21:12:35 13° ESE 21:15:24 19° ENE 21:19:01 10° NNE
Cosmos 614 Rocket 3.9 21:10:18 10° SSW 21:15:31 85° ESE 21:20:45 10° NNE
SL-16 R/B 2.9 21:11:41 10° N 21:16:57 38° ENE 21:20:31 19° ESE
Resurs 01 Rocket 4.0 21:15:41 10° SW 21:19:02 21° W 21:22:23 10° NW
SPOT 5 4.0 21:19:00 18° ESE 21:21:28 27° ENE 21:25:37 10° NNE
In-Cosmos 22 4.2 21:16:11 10° S 21:21:50 89° W 21:27:37 10° N
ARGOS 4.0 21:20:38 19° ESE 21:23:50 35° ENE 21:28:43 10° N
ERS-1 Rocket 3.1 21:21:41 19° SSE 21:25:16 60° ENE 21:30:14 10° N
Lacrosse 5 4.3 21:23:40 10° N 21:25:38 12° NNE 21:27:37 10° NE
CZ-4B DEB 3.1 21:24:47 17° S 21:26:51 55° W 21:29:46 10° NNW
Spot 1 4.4 21:23:44 12° S 21:27:28 58° WSW 21:31:33 10° NNW
Meteor 2-1 Rocket 4.2 21:22:17 10° N 21:28:08 86° E 21:32:55 15° S
MetOp-A 4.4 21:24:40 20° SE 21:28:08 51° ENE 21:33:19 10° N
Cosmos 1741 Rocket 3.9 21:25:25 10° S 21:30:44 78° ESE 21:36:03 10° NNE
USA 234 3.2 21:26:02 10° NE 21:32:36 90° SE 21:39:08 10° SW
Cosmos 1184 Rocket 3.9 21:29:29 10° SSW 21:32:41 46° W 21:35:57 10° N
SAR-Lupe-4 4.2 21:32:11 16° S 21:34:51 51° W 21:38:21 10° NNW
Cosmos 2333 Rocket 3.4 21:30:40 10° NW 21:35:48 37° WSW 21:40:55 10° S
Cosmos 2219 Rocket 3.9 21:32:25 10° NW 21:37:11 28° WSW 21:41:55 10° SSW
Sakura Rocket 4.3 21:34:13 10° WSW 21:41:37 45° S 21:44:38 26° ESE
SEDSat Delta rocket 3.9 21:38:02 10° W 21:41:45 28° SSW 21:42:37 26° S
Cosmos 2061 Rocket 4.3 21:36:21 10° N 21:42:32 51° E 21:45:58 26° SE
Cosmos 2100 Rocket 4.1 21:38:15 10° N 21:44:31 64° E 21:48:19 25° SSE
NOAA 11 4.1 21:42:39 23° SSE 21:46:07 85° ENE 21:51:34 10° NNW
Cosmos 2227 4.4 21:42:48 19° S 21:46:39 49° ESE 21:52:08 10° NNE
Cosmos 1459 Rocket 4.1 21:40:54 10° N 21:47:08 62° E 21:50:34 27° SSE
CZ-3B R/B 3.9 21:45:04 10° SW 21:47:41 66° NW 21:55:28 10° NE
Cosmos 1000 Rocket 4.5 21:43:01 16° S 21:48:11 73° E 21:54:27 10° N
Milstar 3 Cent rocket 3.9 21:42:19 10° W 21:49:45 55° S 22:00:08 21° ESE
Meteor 1-21 Rocket 4.1 21:47:04 16° S 21:51:47 81° E 21:57:26 10° N
Cosmos 2123 Rocket 4.4 21:50:05 29° SE 21:52:33 41° E 21:58:16 10° NNE
Cosmos 2084 4.0 21:54:54 10° SW 21:58:53 54° WNW 22:02:41 10° NNE
Cosmos 2173 Rocket 3.9 21:53:02 10° N 21:59:12 77° E 22:02:31 30° SSE
NOSS 3-4 (A) 4.0 21:52:36 10° NW 21:59:44 69° WSW 22:04:11 27° SSE
NOSS 3-4 (C) 4.0 21:52:41 10° NW 21:59:50 70° WSW 22:04:16 27° SSE
EO 1 Delta rocket 4.3 21:58:39 36° ESE 21:59:59 45° ENE 22:04:22 10° N
Cosmos 1242 Rocket 2.5 22:00:03 10° N 22:03:47 85° E 22:04:19 64° SSE
Cosmos 2208 Rocket 4.0 22:00:07 10° NNW 22:05:28 78° ENE 22:07:26 40° SSE
SPOT 1/Viking Rocket 3.6 22:08:16 42° SE 22:09:51 64° ENE 22:14:57 10° N
Terra 2.9 22:10:52 28° E 22:11:28 29° ENE 22:15:32 10° NNE
Nimbus 7 Rocket 4.3 22:08:39 10° NNE 22:14:43 87° ESE 22:18:23 25° SSW
Cosmos 1300 3.7 22:11:42 10° NNE 22:14:45 34° ENE 22:14:45 34° ENE
Cosmos 1802 Rocket 3.9 22:09:07 10° N 22:15:16 89° ENE 22:18:01 36° S
Tiangong 1 3.7 22:17:06 10° NW 22:19:01 17° N 22:20:29 12° NNE
Cosmos 2263 Rocket 3.2 22:20:31 28° E 22:20:31 28° E 22:24:27 10° NE
Cosmos 1725 Rocket 4.2 22:13:43 10° N 22:19:51 55° E 22:21:33 42° SE
Cosmos 1570 Rocket 4.2 22:15:57 10° NNW 22:21:13 66° WSW 22:22:57 41° S
Cosmos 1408 Rocket 3.9 22:21:54 37° SW 22:23:21 60° W 22:27:38 10° N
Cosmos 220 Rocket 4.2 22:24:40 56° E 22:24:40 56° E 22:28:40 10° NNE
SL-08 R/B 4.5 22:18:01 10° N 22:24:22 73° E 22:26:31 44° SSE
Cosmos 1726 2.4 22:25:38 10° N 22:28:47 61° NNE 22:28:47 61° NNE
ATLAS 5 CENTAUR R/B 4.0 22:26:58 10° WSW 22:30:47 25° NW 22:34:52 10° N
Cosmos 332 Rocket 4.2 22:26:19 10° N 22:31:04 48° ENE 22:31:24 47° E
Cosmos 1763 Rocket 4.3 22:29:16 10° N 22:33:53 33° ENE 22:34:14 33° ENE
Atlas Centaur 2 3.4 22:34:13 10° WSW 22:35:02 15° WSW 22:35:02 15° WSW
SL-08 RB Rocket 4.5 22:40:20 38° SW 22:41:15 43° W 22:45:37 10° NNW
Cosmos 1500 Rocket 3.7 22:42:58 65° NE 22:42:58 65° NE 22:46:59 10° NNE
Meteor 2-10 4.1 22:37:47 10° N 22:43:25 77° E 22:44:16 63° SE
Cosmos 1603 3.6 22:38:17 10° NNW 22:43:56 73° ENE 22:44:42 63° ESE
Cosmos 1864 Rocket 4.4 22:37:38 10° N 22:44:02 87° E 22:45:39 54° S
Cosmos 2058 3.9 22:48:12 39° NE 22:48:12 39° NE 22:51:08 10° NNE
Cosmos 2016 Rocket 4.4 22:43:29 10° NNW 22:49:35 56° W 22:51:50 37° SSW
CARTOSAT-1 3.7 22:52:51 69° N 22:52:51 69° N 22:56:41 10° N
H-2A R/B 2.7 22:53:13 41° SW 22:54:20 48° W 22:59:32 10° NNW
Cosmos 2151 3.4 22:58:37 58° N 22:58:37 58° N 23:02:06 10° N
SPOT 5 4.4 22:58:14 23° WSW 22:59:25 26° W 23:03:30 10° NW
OAO 1 Rocket 4.4 22:54:05 10° W 22:59:28 85° N 22:59:48 78° ENE
Cosmos 468 Rocket 4.0 22:54:29 10° NNW 22:59:35 68° WSW 22:59:45 67° WSW
SL-16 R/B 3.8 22:56:18 10° NW 23:00:46 24° WSW 23:02:25 21° SW
Cosmos 1943 3.6 22:56:41 10° N 23:02:09 49° ENE 23:02:27 49° ENE
H-2A ROCKET BODY 3.1 23:01:43 49° S 23:02:50 53° SSE 23:23:16 10° E
Cosmos 2228 Rocket 3.7 23:02:41 10° NNW 23:06:56 54° W 23:06:56 54° W
Lacrosse 5 2.2 23:04:35 10° NNW 23:09:28 58° NE 23:09:28 58° NE
RESURS DK-1 3.4 23:09:29 10° NNW 23:12:27 43° NW 23:12:27 43° NW
Cosmos 1515 Rocket 4.3 23:09:34 10° NNW 23:13:06 49° NW 23:13:06 49° NW
H-2A R/B 2.7 23:14:45 54° NW 23:14:45 54° NW 23:18:10 10° NNW
Cosmos 2233 Rocket 3.8 23:09:22 10° N 23:15:37 84° W 23:16:13 74° SSW
Cosmos 371 Rocket 3.8 23:17:38 10° NNW 23:21:42 54° WNW 23:21:42 54° WNW
Cosmos 1151 Rocket 4.1 23:22:24 10° NNW 23:25:43 43° NW 23:25:43 43° NW
Meteor 1-27 4.4 23:26:44 10° NNW 23:32:28 63° W 23:32:32 63° W
CZ-4B R/B 3.8 23:28:47 10° N 23:33:56 63° WNW 23:33:56 63° WNW
CZ-2C R/B 3.7 23:33:55 10° NNE 23:37:21 33° ENE 23:37:21 33° ENE
Cosmos 1354 Rocket 4.4 23:42:02 60° NW 23:42:02 60° NW 23:46:47 10° N
Cosmos 540 Rocket 4.2 23:36:51 10° N 23:40:59 46° NE 23:40:59 46° NE
Terra 3.6 23:49:46 23° W 23:49:46 23° W 23:52:59 10° NW
Cosmos 2285 Rocket 3.9 23:46:13 10° NNW 23:52:25 82° NE 23:52:25 82° NE
